Regional Weather Roundup
Issued by NWS Charleston, SC

Current Version | Previous Version | Graphics & Text | Print | Product List | Glossary On
Versions: 1 2 3 4 5 6 7 8 9 10 11 12 13 14 15 16 17 18 19 20 21 22 23 24 25 26 27 28 29 30 31 32 33 34 35 36 37 38 39 40 41 42 43 44 45 46 47 48 49 50
000
ASUS42 KCHS 231644
RWRCHS

REGIONAL WEATHER ROUNDUP
NATIONAL WEATHER SERVICE CHARLESTON SC
1200 PM EDT SAT SEP 23 2017

NOTE: "FAIR" INDICATES FEW OR NO CLOUDS BELOW 12,000 FEET WITH NO
SIGNIFICANT WEATHER AND/OR OBSTRUCTIONS TO VISIBILITY.

NOT ALL STATIONS ARE QUALITY CONTROLLED. USE DATA WITH CAUTION...
ESPECIALLY DEWPOINT OBSERVATIONS.

SCZ027-030-031-034>040-042>050-231700-
...SOUTHEAST SOUTH CAROLINA...

CITY           SKY/WX    TMP DP  RH WIND       PRES   REMARKS
N CHARLESTON   MOSUNNY   84  70  62 NE12      30.03S
WATERFRONT PRK   N/A     81  72  74 NE7       29.87S
JOHNS ISLAND   FAIR      84  70  61 NE9       30.03S
PINOPOLIS        N/A     79  73  83 VRB3      29.98S
MONCKS CORNER  FAIR      84  66  54 NE9       30.03F
SUMMERVILLE    FAIR      82  68  61 N7        30.04F
BEAUFORT MCAS  MOSUNNY   84  74  71 NE10      30.03S HX  91
BEAUFORT ARPT  PTSUNNY   81  72  74 NE10      30.02S
HILTON HEAD IS MOSUNNY   84  73  70 NE10      30.03S HX  91
WALTERBORO     PTSUNNY   84  70  61 E8        30.05S
ALLENDALE      NOT AVBL

...SOUTHERN MIDLANDS AND PEE DEE...

CITY           SKY/WX    TMP DP  RH WIND       PRES   REMARKS
GEORGETOWN     FAIR      82  68  61 NE6       30.04S
KINGSTREE      FAIR      82  68  61 CALM      30.04F
ORANGEBURG     SUNNY     84  66  54 E9        30.04F
BARNWELL       FAIR      88  70  55 NE9       30.04F HX  92
AIKEN          FAIR      84  63  48 E5        30.08F
MANNING        FAIR     N/A N/A N/A MISG      30.04F
COLUMBIA       MOSUNNY   87  66  49 CALM      30.04F
SUMTER         MOSUNNY   86  65  48 N8        30.02F
FLORENCE       SUNNY     84  67  56 N7        30.05F
MYRTLE BEACH   MOSUNNY   83  70  64 CALM      30.05S
N MYRTLE BEACH SUNNY     84  69  60 NE9       30.03S

$$

GAZ063-065-086>088-099>101-113>116-118-119-134>141-150-231700-
...SOUTHEAST GEORGIA...

CITY           SKY/WX    TMP DP  RH WIND       PRES   REMARKS
SAVANNAH ARPT  PTSUNNY   85  72  65 NE10      30.02S HX  91
HUNTER AAF     MOSUNNY   81  72  74 NE14G20   30.00R
FORT STEWART   MOSUNNY   79  71  77 N6        30.01R
STATESBORO     MOSUNNY   85  64  49 E8        30.03S
SYLVANIA       MOSUNNY   85  74  68 E7        30.04F HX  92
CLAXTON        PTSUNNY   85  72  65 NE13      30.03S HX  90

...CSRA...CENTRAL AND FAR SOUTHEAST GEORGIA...

CITY           SKY/WX    TMP DP  RH WIND       PRES   REMARKS
THOMSON        SUNNY     85  66  54 S10       30.10F
AUGUSTA-BUSH   SUNNY     88  69  53 VRB7      30.03F HX  92
AUGUSTA-DANIEL SUNNY     86  68  54 NE6       30.06F
SWAINSBORO     FAIR      82  70  65 NE9       30.04F
VIDALIA        MOSUNNY   86  70  58 SE9G16    30.03S HX  90
EASTMAN        FAIR      86  54  32 E12G18    30.05F
HAZLEHURST     FAIR      86  58  39 NE3       30.01F
ALMA           MOSUNNY   85  68  56 VRB7      30.01S
WAYCROSS       MOSUNNY   84  69  61 NE6       30.00F
JESUP          NOT AVBL
BAXLEY         PTSUNNY   81  70  69 E9        30.01S
BRUNSWICK      PTSUNNY   81  70  69 NE10      30.01S
SAINT SIMONS   PTSUNNY   82  73  74 NE10      30.00R

$$

SCZ027-028-034-036>038-045-046-048>050-GAZ119-141-231700-
...LAKE AND SUPPLEMENTAL COASTAL OBSERVATIONS...

STATION/POSITION TIME  TEMP    WIND        PRES    WAVE   SWELL
                       AIR SEA DIR/SP/G            HT/PER HT/PER/DIR
                 (UTC) (F)     (DEG/KT/KT) (MB)    (FT/S) (FT/S/D)
WINYAH BAY       1545   79      70/  9     1017.0S
LAKE MURRAY      1620   83      CALM  /  4 1016.6F
ACE BASIN NERRS  1545   84      40/  4     1017.0S
FORT PULASKI     1600   80 80   70/ 14/ 19 1016.9
SAPELO ISLAND    1600   80        CALM     1016.0

$$

ANZ835-935-AMZ111-154-330-350-352-354-370-450-454-472-231700-
...C-MAN AND BUOY OBSERVATIONS...

STATION/POSITION TIME  TEMP    WIND        PRES    WAVE   SWELL
                       AIR SEA DIR/SP/G            HT/PER HT/PER/DIR
                 (UTC) (F)     (DEG/KT/KT) (MB)    (FT/S) (FT/S/D)
BUOY 41004       1610   81 82   60/ 16/ 19 1015.8
BUOY 41008       1550   79 80   60/ 16/ 17 1015.1S   5/15   3/120/15
FOLLY BEACH CMAN 1600   80      50/ 14/ 16 1017.4R
CAPERS NEARSHORE 1508   78 81   60/ 14/ 17 1016.3F
FRIPP NEARSHORE  1608   80      50/ 14/ 17 1022.3F


STATION/POSITION TIME  TEMP    WIND        PRES    WAVE   SWELL
                       AIR SEA DIR/SP/G            HT/PER HT/PER/DIR
                 (UTC) (F)     (DEG/KT/KT) (MB)    (FT/S) (FT/S/D)
5E ST. MARYS GA  1600      82                N/A     5/11   3/100/11
FRYING PAN BUOY  1610   79 82   30/ 10/ 14 1016.5
BUOY 41025       1550   76 76   40/ 10/ 10 1017.1S   8/13   8/150/13
CAPE LOOKOUT NC  1600   80      30/  9/ 11 1016.8F
BUOY 41002       1550   79 79   60/ 17/ 19 1014.8R  10/11   8/110/11
BUOY 41010       1610           60/ 16/ 19 1014.3
ST AUGUSTINE FL  1600   78 82   50/ 14/ 16 1015.0R


$$




USA.gov is the U.S. government's official web portal to all federal, state and local government web resources and services.